Theta_e
315 315 315 315 315 314 314 315 314 314 314 314 314 313 313 312 311 314 317 319 318 318 316 313 317 312 314 316 317 317 316 317 318 320 321 323 323 325 324 324 324 325 326 330 349
314 314 314 314 314 314 313 313 313 313 313 313 313 313 312 311 313 316 317 318 319 319 315 315 316 314 315 316 317 317 317 317 318 319 321 322 322 322 322 322 322 324 325 331 341
314 314 314 314 314 314 313 312 312 313 313 313 312 312 311 311 316 322 316 319 319 318 315 313 315 315 315 316 316 317 318 319 319 319 320 320 320 320 320 320 321 322 324 325 329
313 313 313 312 312 313 312 312 312 312 312 312 311 311 310 313 323 321 318 317 318 317 316 313 317 315 315 315 315 315 317 318 318 319 319 318 319 318 318 319 320 321 322 323 325
313 312 312 312 312 312 312 311 311 311 311 310 310 310 312 315 317 317 319 320 316 317 315 315 317 316 315 315 315 315 316 318 319 318 318 318 317 317 317 319 319 320 320 321 322
312 312 311 311 311 311 311 311 311 311 311 310 311 310 313 317 314 316 318 322 319 316 316 315 317 316 316 315 315 316 317 317 318 318 318 317 317 317 317 318 318 318 319 319 321
312 310 311 311 311 310 310 311 311 311 311 311 312 314 314 317 316 318 319 321 319 316 316 316 315 315 316 316 317 317 317 318 318 318 318 318 317 317 318 319 319 319 319 319 320
311 311 311 311 310 309 309 310 310 310 311 311 313 315 317 316 317 318 318 319 320 317 316 314 314 316 318 317 318 316 318 317 317 318 317 317 316 318 320 321 320 320 320 320 320
311 311 310 309 307 306 306 307 307 310 312 312 314 314 319 318 318 318 318 318 320 320 319 318 318 317 318 318 317 317 316 317 317 318 318 318 318 319 320 322 322 322 321 321 321
310 310 310 307 307 306 306 307 309 311 313 315 315 316 316 320 320 319 319 317 321 320 321 319 319 318 318 317 318 316 317 317 318 320 320 320 319 321 321 322 323 323 322 322 322
308 308 307 307 306 305 306 310 317 316 316 320 321 320 321 321 319 319 319 318 321 321 323 322 319 319 318 318 317 316 318 319 320 321 321 320 321 321 322 323 323 324 325 325 325
308 308 307 306 305 304 307 313 314 317 316 317 319 320 320 321 322 321 318 319 323 324 322 322 320 319 318 318 317 316 316 318 320 321 322 321 322 322 322 323 324 324 325 326 326
307 308 307 305 303 308 315 317 314 314 317 318 319 321 322 322 323 322 319 319 322 324 322 321 320 319 318 318 317 317 316 317 321 321 321 321 321 323 323 323 323 323 323 325 324
305 305 304 303 306 311 308 312 314 318 324 321 323 324 323 323 324 322 320 320 321 324 321 319 320 319 318 317 317 317 316 317 320 321 322 322 322 325 324 324 323 323 323 324 327
302 302 302 305 305 306 309 312 314 320 330 325 325 322 323 324 323 323 320 321 323 322 322 321 320 320 319 318 317 316 317 317 319 320 322 322 322 324 326 324 323 324 324 326 325
302 303 304 306 307 308 310 312 315 326 326 323 326 324 324 324 323 322 322 320 323 323 322 321 321 320 320 318 316 317 318 320 320 320 323 321 321 322 323 325 324 324 324 327 326
302 303 304 306 307 307 311 314 322 324 319 325 330 326 325 325 323 325 322 319 325 326 324 322 321 321 319 319 318 318 320 322 323 323 324 322 322 324 325 324 324 326 327 327 326
303 305 308 309 311 311 313 317 322 319 320 324 328 324 325 325 326 323 325 317 319 321 323 326 325 323 320 320 320 319 321 322 326 324 322 321 323 323 325 324 326 325 325 325 326
304 309 310 312 312 313 314 319 319 318 319 324 326 330 327 327 327 327 328 320 318 319 321 322 326 320 319 319 320 320 321 322 324 324 326 324 323 326 326 325 325 324 325 328 329
305 311 314 317 317 316 317 319 318 317 319 321 326 324 327 327 329 329 328 325 319 318 319 323 328 321 321 320 320 321 320 322 323 326 329 326 325 326 327 326 324 324 327 328 327
308 313 319 319 318 319 321 319 318 318 319 322 325 324 327 327 325 323 329 326 324 320 319 321 329 330 323 323 321 320 322 323 324 326 330 330 332 329 327 331 331 328 328 328 326
308 314 316 318 320 319 321 319 317 320 322 323 324 324 326 323 324 323 325 326 324 325 323 324 329 331 329 323 324 325 321 322 330 330 326 334 335 331 331 330 331 328 328 326 326
309 312 312 314 319 318 318 318 318 323 321 322 324 325 324 325 326 324 322 322 322 326 328 327 331 335 332 329 326 329 323 324 327 332 333 335 337 330 330 331 329 328 329 326 325
310 313 317 321 318 318 319 319 319 319 321 320 322 324 321 323 322 324 324 322 322 325 326 328 331 332 335 332 330 331 330 326 328 335 332 331 333 331 329 328 328 329 327 326 327
311 314 312 313 314 313 313 313 314 319 320 318 317 324 323 325 322 323 322 319 320 323 324 328 330 329 329 326 326 326 326 329 330 326 332 330 329 332 325 325 325 323 320 320 319
312 312 312 311 313 314 313 316 316 317 318 319 317 324 323 325 325 324 321 322 319 317 322 329 327 323 329 329 324 323 321 327 328 329 326 327 328 326 323 323 322 321 321 321 321
307 308 309 310 312 315 315 314 314 314 317 317 315 323 324 320 319 319 320 320 322 320 321 323 321 321 321 323 323 321 319 320 327 326 325 326 324 324 322 321 320 320 320 320 321
Wind_Speed
15 15 16 16 16 17 17 16 15 15 16 17 18 20 21 24 26 23 24 24 15 23 22 14 15 18 19 19 19 17 12 12 22 22 18 17 18 17 5 7 5 14 15 13 11
16 16 16 17 17 18 18 18 17 16 15 16 18 19 22 26 26 31 31 31 30 26 12 18 17 17 16 17 17 18 14 22 19 20 19 14 15 8 6 7 10 13 12 8 9
18 18 17 18 19 19 20 20 19 18 18 17 17 17 20 23 19 5 2 18 33 26 22 20 21 18 21 19 21 23 21 19 19 22 16 12 14 13 9 13 13 14 13 18 12
19 18 18 18 19 20 20 20 19 19 18 18 19 19 21 13 7 7 5 7 13 20 20 24 21 21 21 23 22 24 24 22 22 24 16 10 13 16 17 16 16 17 17 19 17
20 19 19 20 20 21 22 22 21 20 21 20 19 18 14 10 21 24 24 9 10 18 24 22 23 21 22 22 23 24 23 22 20 18 20 14 17 18 20 17 17 17 18 19 19
20 20 21 21 23 23 23 23 22 22 20 21 20 14 13 20 24 23 22 8 14 20 24 25 18 18 19 23 22 21 21 19 21 21 16 19 20 20 21 19 19 19 20 19 20
21 23 21 23 23 24 25 25 26 26 25 20 17 12 13 28 15 16 13 15 19 22 20 27 26 20 19 19 19 20 18 17 16 20 25 18 23 24 20 20 21 20 17 18 20
23 22 24 24 25 26 26 28 29 28 25 21 14 11 10 19 20 25 22 19 19 22 24 21 24 20 18 15 20 14 20 19 21 22 22 19 23 19 19 19 21 20 17 17 19
24 24 25 27 28 28 29 31 34 24 18 11 8 9 12 8 15 30 24 24 23 23 22 20 16 17 15 17 14 18 17 23 23 24 23 24 21 16 21 9 10 10 12 14 15
27 27 27 29 30 31 33 34 27 16 6 7 12 6 11 12 18 16 26 26 19 19 18 18 11 15 17 17 19 17 21 21 22 19 13 14 14 16 16 14 15 13 11 11 13
31 31 31 32 33 33 33 17 6 5 11 11 12 11 19 10 5 9 21 23 19 21 22 21 16 22 25 24 19 21 22 20 15 19 16 15 17 17 15 15 13 12 10 10 11
29 31 32 33 34 36 27 7 16 20 22 23 30 30 33 27 13 13 22 20 23 22 23 19 25 24 23 24 24 22 23 19 15 17 15 12 15 15 16 13 12 11 6 8 10
28 30 33 36 39 24 12 18 24 24 16 29 31 27 27 25 24 15 21 24 22 24 26 25 18 25 25 23 24 24 22 19 16 8 10 13 13 16 15 13 16 5 6 8 4
29 32 32 33 22 14 22 19 14 13 7 15 14 16 23 19 25 22 21 23 19 24 25 23 27 25 24 26 23 21 20 20 15 14 14 16 14 17 19 19 11 9 6 4 7
29 30 29 19 22 13 17 16 15 8 7 9 9 8 11 21 4 23 25 24 22 19 19 24 22 21 22 26 23 19 17 18 17 14 13 17 11 13 11 15 9 12 6 8 3
34 33 33 24 20 25 18 13 15 5 12 7 5 6 13 16 11 8 23 23 20 20 15 23 20 19 19 21 17 18 18 18 18 15 15 20 16 12 9 13 14 14 13 10 5
41 45 36 24 11 13 16 9 7 10 13 2 10 4 12 2 5 3 16 22 20 15 17 19 21 18 19 15 20 19 15 10 11 12 14 19 17 13 12 8 13 15 15 10 3
47 43 27 20 15 16 11 11 13 15 23 7 4 10 7 3 9 12 19 18 24 24 14 17 19 28 21 22 18 18 16 10 15 13 14 19 18 16 18 10 13 13 12 8 5
44 25 21 21 18 14 8 13 15 21 14 14 19 7 11 11 7 10 16 22 23 23 19 10 17 21 21 17 22 19 19 20 17 12 7 8 13 13 14 12 14 13 10 10 8
27 24 18 6 7 12 9 23 23 26 24 8 18 3 4 2 6 10 7 15 16 20 14 3 7 13 14 14 17 15 15 14 9 13 15 12 6 4 8 10 12 11 11 10 6
14 7 7 2 6 6 11 19 24 26 20 12 11 8 8 4 2 5 5 14 11 23 20 17 4 10 16 17 20 14 15 13 10 10 10 9 1 8 4 10 8 9 10 10 5
10 7 7 4 5 7 14 23 25 18 21 18 18 5 6 6 5 4 6 2 13 8 25 16 4 6 10 11 4 12 19 18 8 14 6 3 2 10 11 7 13 13 17 8 9
7 11 18 6 5 10 13 21 23 1 9 6 12 10 7 8 5 9 6 4 15 6 9 5 9 4 8 7 6 13 15 11 4 4 7 4 4 2 11 11 10 16 11 9 7
6 6 4 2 12 12 17 17 20 6 9 10 20 14 8 2 6 7 8 8 13 5 1 2 5 5 4 2 3 8 4 10 9 4 3 8 4 0 10 15 17 18 6 5 7
4 8 13 10 15 21 18 19 22 20 10 10 12 11 8 5 13 10 10 8 5 7 2 0 3 13 5 8 3 6 7 9 11 10 5 9 10 15 8 2 11 16 8 6 7
4 6 11 15 18 21 20 16 12 16 7 11 10 19 9 4 5 6 10 7 5 7 6 13 6 11 3 9 7 4 6 6 9 14 8 9 6 13 20 21 9 7 8 9 10
20 19 7 11 15 17 11 16 15 17 6 9 23 22 13 10 13 5 10 6 8 5 5 1 2 1 2 11 11 10 14 12 13 18 12 8 10 10 11 8 7 6 7 7 8
Wind_Direction
340 337 336 336 334 333 331 329 328 326 324 321 320 317 315 315 311 295 259 248 225 251 256 270 236 220 225 242 230 216 241 258 253 257 265 270 271 267 21 310 272 260 263 257 114
339 336 333 332 332 331 330 326 323 322 318 315 313 314 317 321 307 281 258 246 241 242 230 224 231 211 216 221 227 227 228 239 253 278 274 302 331 322 296 234 246 273 270 237 145
338 334 330 329 329 327 326 325 321 318 315 312 310 311 315 322 296 268 269 228 230 227 227 228 234 213 224 226 221 225 237 251 240 244 292 307 309 319 301 267 264 263 250 251 241
331 328 328 324 321 320 317 317 315 313 313 311 312 312 314 312 267 114 73 0 225 213 222 230 236 218 224 227 230 231 233 241 260 276 280 276 280 272 273 266 270 272 278 282 279
330 327 324 322 320 319 317 317 314 312 310 308 309 312 325 249 247 260 281 264 210 204 214 215 220 219 220 230 229 233 242 242 256 257 277 277 261 265 263 262 266 265 266 270 275
329 328 326 322 321 319 316 312 309 304 300 301 303 301 273 267 265 267 218 204 208 200 213 219 223 223 230 236 235 234 241 249 252 257 248 251 257 257 255 254 251 250 255 253 265
324 325 327 325 324 320 316 311 306 303 300 295 293 272 258 241 273 300 228 216 220 203 210 221 229 221 223 244 249 265 252 238 240 247 252 249 254 252 260 252 251 248 231 247 257
323 328 327 324 322 320 315 309 302 299 296 287 276 251 251 255 257 264 253 239 217 219 227 222 228 244 246 238 249 257 243 249 243 239 237 236 253 252 248 227 229 230 234 235 232
327 326 325 325 325 323 319 310 305 305 295 262 243 217 263 279 226 236 233 232 212 222 221 237 229 236 232 241 240 226 238 236 248 242 218 209 239 248 250 248 272 258 239 228 234
331 328 322 325 321 320 318 315 308 285 262 222 250 196 254 252 240 209 217 225 219 209 213 222 227 222 228 217 221 222 225 242 250 235 194 227 216 252 269 248 248 244 242 231 232
328 327 327 324 319 319 323 327 181 180 217 215 207 230 282 288 243 207 198 207 221 204 208 206 219 215 216 224 226 245 241 226 242 235 178 222 245 231 242 254 258 242 239 219 242
318 317 321 323 317 314 304 252 271 318 294 261 240 249 248 258 270 206 179 202 208 205 208 203 223 223 219 221 230 237 252 251 246 236 187 203 240 244 246 249 245 254 303 226 219
315 315 319 323 319 307 245 265 286 286 273 279 258 243 229 226 238 247 175 204 199 207 204 213 215 223 227 222 226 225 235 244 252 237 267 262 255 253 260 246 252 204 242 277 305
316 313 317 323 309 307 295 283 309 306 284 270 219 226 220 190 230 225 184 200 220 212 219 217 236 202 221 232 221 228 223 244 234 239 241 201 249 248 226 227 202 212 201 40 14
324 321 320 317 291 282 286 318 321 295 282 126 147 112 169 186 98 198 201 198 219 211 209 226 221 233 221 226 227 231 218 221 242 242 248 253 255 263 224 181 202 188 147 102 9
325 320 318 307 256 260 276 286 289 242 249 217 105 193 193 205 239 311 182 205 207 223 233 225 250 226 219 236 221 219 232 221 216 224 229 233 242 245 232 207 190 181 139 106 71
325 318 303 272 253 260 294 223 236 238 271 220 74 12 21 290 178 52 212 203 208 212 223 228 228 244 246 233 209 227 217 217 222 226 238 225 224 235 240 240 193 149 119 121 120
325 318 294 243 247 253 262 217 244 259 240 26 150 131 167 192 231 214 231 205 221 226 213 210 224 216 207 210 209 214 216 219 215 217 236 222 223 216 228 156 110 98 91 113 98
328 317 292 260 207 214 222 227 233 242 272 338 316 159 215 158 182 204 252 216 203 234 239 238 264 201 217 210 217 200 212 232 250 275 257 255 248 81 101 121 135 143 149 106 96
317 301 263 138 175 204 225 245 259 255 290 269 275 64 281 189 206 208 203 238 215 227 220 289 239 222 221 238 245 246 216 228 250 242 245 249 211 107 183 154 162 158 134 118 128
300 291 96 185 166 220 235 246 253 255 299 290 288 281 35 38 159 348 191 272 278 213 198 220 91 278 228 221 216 202 218 242 245 271 253 218 65 352 17 49 47 15 138 135 130
305 291 120 210 246 246 257 261 275 311 314 319 315 141 128 134 271 190 246 338 304 329 207 180 173 244 233 224 305 288 218 213 220 248 250 43 232 326 347 80 70 48 320 132 97
298 285 279 189 252 280 292 284 288 260 315 310 300 357 147 166 206 213 220 304 296 316 226 229 169 198 220 291 241 250 231 248 318 45 245 235 149 331 343 348 131 141 218 229 156
286 301 42 254 264 286 305 303 312 353 301 268 310 153 136 123 185 234 173 190 254 17 343 68 240 235 169 87 152 264 340 229 201 191 183 216 187 22 9 353 350 281 181 102 133
262 326 340 310 321 319 299 291 287 322 7 332 334 205 171 205 197 184 156 151 192 291 245 315 41 302 121 148 226 260 299 307 269 224 156 254 235 140 105 11 221 276 357 338 333
288 337 336 302 294 300 300 324 331 332 343 313 299 271 138 113 41 303 160 166 158 264 279 197 196 241 139 219 169 215 268 266 289 293 230 191 235 161 177 188 221 27 4 20 359
328 329 321 292 304 304 325 321 307 310 27 36 307 287 143 145 232 221 85 62 147 131 313 240 307 282 273 193 157 232 211 219 200 224 222 205 98 139 127 106 68 49 54 44 28